Dunkirk, NY

6:51 AM EDT on September 21, 2017 (GMT -0400)
Chautauqua County-Dunkirk

Weather History for KDKK - March, 2013

Change the Weather History Date:

Saturday, March 9, 2013

  Actual Average Record
Temperature  
Mean Temperature 31 °F -  
Max Temperature 44 °F 41 °F 73 °F (2016)
Min Temperature 23 °F 23 °F -6 °F (1960)
Degree Days  
Heating Degree Days 34    
Moisture  
Dew Point 28 °F    
Average Humidity 84    
Maximum Humidity 93    
Minimum Humidity 43    
Precipitation  
Precipitation 0.00 in - - ()
Sea Level Pressure  
Sea Level Pressure 30.35 in    
Wind  
Wind Speed 5 mph (NNW)    
Max Wind Speed 8 mph    
Max Gust Speed -    
Visibility 6 miles    
Events Fog    
Averages and records for this station are not official NWS values.
T = Trace of Precipitation, MM = Missing Value Source: NWS Daily Summary

Daily Weather History Graph

Daily Weather History Graph

Search for Another Location

Airport or City:

Trip Planner

Search our weather history database for the weather conditions in past years. The results will help you decide how hot, cold, wet, or windy it might be!

Date:

Astronomy

Mar. 09, 2013 Rise Set
Actual Time 6:38 AM EST 6:16 PM EST
Civil Twilight 6:10 AM EST 6:44 PM EST
Nautical Twilight 5:38 AM EST 7:17 PM EST
Astronomical Twilight 5:05 AM EST 7:50 PM EST
Moon 5:04 AM EST (3/9) 4:15 PM EST (3/9)
Length of Visible Light 12h 33m
Length of Day
11h 37m
Waning Crescent, 5% of the Moon is Illuminated
Mar 9
Waning Crescent
Mar 11
New
Mar 19
First Quarter
Mar 27
Full
Apr 3
Last Quarter

Hourly Weather History & Observations

Time (EST) Temp. Windchill Dew Point Humidity Pressure Visibility Wind Dir Wind Speed Gust Speed Precip Events Conditions
12:53 AM 28.0 °F 21.7 °F 24.1 °F 85% 30.43 in 10.0 mi SSW 5.8 mph - N/A   Clear
1:53 AM 28.9 °F 25.2 °F 25.0 °F 85% 30.43 in 10.0 mi SW 3.5 mph - N/A   Clear
2:53 AM 27.0 °F 23.0 °F 25.0 °F 92% 30.41 in 9.0 mi SSW 3.5 mph - N/A   Clear
3:53 AM 26.1 °F 20.5 °F 24.1 °F 92% 30.39 in 8.0 mi SW 4.6 mph - N/A   Clear
4:53 AM 24.1 °F 18.2 °F 21.9 °F 91% 30.40 in 8.0 mi SSW 4.6 mph - N/A   Clear
5:53 AM 25.0 °F - 21.9 °F 88% 30.41 in 8.0 mi Calm Calm - N/A   Clear
6:53 AM 23.0 °F - 21.0 °F 92% 30.43 in 7.0 mi Calm Calm - N/A   Clear
7:53 AM 27.0 °F - 24.1 °F 89% 30.43 in 8.0 mi Calm Calm - N/A   Clear
9:53 AM 36.0 °F - 30.0 °F 79% 30.42 in 9.0 mi Calm Calm - N/A   Clear
10:53 AM 33.1 °F 26.1 °F 30.0 °F 89% 30.40 in 3.0 mi NNW 8.1 mph - N/A   Clear
10:55 AM 33.8 °F 27.0 °F 30.2 °F 87% 30.37 in 2.0 mi NNW 8.1 mph - N/A   Partly Cloudy
11:01 AM 32.0 °F 24.8 °F 30.2 °F 93% 30.37 in 1.0 mi NNW 8.1 mph - N/A   Mist
11:10 AM 30.2 °F 23.4 °F 28.4 °F 93% 30.37 in 0.5 mi NNW 6.9 mph - N/A Fog Light Freezing Fog
11:21 AM 32.0 °F 25.6 °F 30.2 °F 93% 30.37 in 1.2 mi North 6.9 mph - N/A   Mostly Cloudy
11:33 AM 33.8 °F 27.7 °F 30.2 °F 87% 30.37 in 2.5 mi North 6.9 mph - N/A   Mostly Cloudy
11:38 AM 33.8 °F 27.7 °F 30.2 °F 87% 30.37 in 2.5 mi NNW 6.9 mph - N/A   Scattered Clouds
11:43 AM 32.0 °F 25.6 °F 30.2 °F 93% 30.37 in 1.0 mi North 6.9 mph - N/A   Mist
11:53 AM 33.1 °F 26.9 °F 30.0 °F 89% 30.40 in 1.5 mi North 6.9 mph - N/A   Mostly Cloudy
11:56 AM 33.8 °F 27.7 °F 30.2 °F 87% 30.37 in 3.0 mi North 6.9 mph - N/A   Mostly Cloudy
11:59 AM 33.8 °F 27.7 °F 30.2 °F 87% 30.37 in 1.8 mi North 6.9 mph - N/A   Mostly Cloudy
12:06 PM 32.0 °F 25.6 °F 30.2 °F 93% 30.37 in 0.8 mi North 6.9 mph - N/A   Mostly Cloudy
12:32 PM 32.0 °F 25.6 °F 30.2 °F 93% 30.36 in 1.2 mi NNW 6.9 mph - N/A   Overcast
12:53 PM 32.0 °F 26.4 °F 30.0 °F 92% 30.39 in 1.2 mi North 5.8 mph - N/A   Scattered Clouds
12:57 PM 33.8 °F 28.6 °F 30.2 °F 87% 30.36 in 3.0 mi North 5.8 mph - N/A   Partly Cloudy
1:53 PM 35.1 °F 31.0 °F 30.0 °F 82% 30.35 in 9.0 mi North 4.6 mph - N/A   Clear
2:53 PM 37.9 °F 33.5 °F 30.9 °F 76% 30.33 in 10.0 mi NNW 5.8 mph - N/A   Clear
3:53 PM 39.0 °F 34.8 °F 30.0 °F 70% 30.31 in 10.0 mi North 5.8 mph - N/A   Clear
4:53 PM 39.9 °F 37.8 °F 28.0 °F 63% 30.29 in 10.0 mi NNE 3.5 mph - N/A   Clear
5:53 PM 36.0 °F 32.1 °F 28.9 °F 76% 30.27 in 10.0 mi North 4.6 mph - N/A   Clear
6:53 PM 36.0 °F 33.3 °F 28.0 °F 73% 30.27 in 10.0 mi East 3.5 mph - N/A   Clear
7:53 PM 36.0 °F 33.3 °F 28.9 °F 76% 30.25 in 10.0 mi NE 3.5 mph - N/A   Clear
8:53 PM 35.1 °F - 28.9 °F 78% 30.23 in 10.0 mi Calm Calm - N/A   Clear
9:53 PM 33.1 °F - 27.0 °F 78% 30.21 in 10.0 mi Calm Calm - N/A   Clear
10:53 PM 30.9 °F - 26.1 °F 82% 30.19 in 10.0 mi Calm Calm - N/A   Clear
11:53 PM 44.1 °F - 23.0 °F 43% 30.15 in 10.0 mi Calm Calm - N/A   Clear